| time (UTC) | temp F | wind direction | speed MPH | gust MPH | rain 1hr in | rain 24hr in | rain mn in | humidity % | barometer mb |
| 20260504050601 | 53 | 220 | 21.0 | 27.0 | 0.00 | 0.00 | 0.00 | 78 | 1003.0 |
| 20260504045522 | 53 | 218 | 20.0 | 26.0 | 0.00 | 0.00 | 0.00 | 78 | 1002.9 |
| 20260504045054 | 53 | 218 | 21.0 | 27.0 | 0.00 | 0.00 | 0.00 | 78 | 1003.2 |
| 20260504044529 | 53 | 222 | 23.0 | 27.0 | 0.00 | 0.00 | 0.00 | 78 | 1003.2 |
| 20260504044034 | 53 | 222 | 21.0 | 29.0 | 0.00 | 0.00 | 0.00 | 79 | 1003.2 |
| 20260504043525 | 54 | 216 | 22.0 | 29.0 | 0.00 | 0.00 | 0.00 | 80 | 1003.2 |
| 20260504043034 | 54 | 223 | 22.0 | 29.0 | 0.00 | 0.00 | 0.00 | 80 | 1003.5 |
| 20260504042522 | 54 | 225 | 21.0 | 29.0 | 0.00 | 0.00 | 0.00 | 81 | 1003.7 |
| 20260504042029 | 54 | 235 | 24.0 | 29.0 | 0.00 | 0.00 | 0.00 | 80 | 1004.0 |
| 20260504041602 | 54 | 241 | 23.0 | 28.0 | 0.00 | 0.00 | 0.00 | 80 | 1003.9 |
| 20260504041042 | 54 | 238 | 23.0 | 27.0 | 0.00 | 0.00 | 0.00 | 79 | 1003.9 |
| 20260504040524 | 54 | 231 | 23.0 | 27.0 | 0.00 | 0.00 | 0.00 | 79 | 1003.9 |
| 20260504040035 | 54 | 235 | 22.0 | 26.0 | 0.00 | 0.00 | 0.00 | 78 | 1004.1 |
| 20260504035040 | 54 | 240 | 22.0 | 25.0 | 0.00 | 0.00 | 0.00 | 77 | 1004.2 |
| 20260504034529 | 54 | 241 | 20.0 | 24.0 | 0.00 | 0.00 | 0.00 | 76 | 1004.2 |
| 20260504034042 | 54 | 237 | 19.0 | 24.0 | 0.00 | 0.00 | 0.00 | 76 | 1004.1 |
| 20260504033528 | 54 | 230 | 20.0 | 25.0 | 0.00 | 0.00 | 0.00 | 76 | 1003.8 |
| 20260504033041 | 54 | 229 | 21.0 | 29.0 | 0.00 | 0.00 | 0.00 | 76 | 1003.7 |
| 20260504032530 | 54 | 223 | 20.0 | 25.0 | 0.00 | 0.00 | 0.00 | 76 | 1003.7 |
| 20260504032028 | 55 | 225 | 20.0 | 25.0 | 0.00 | 0.00 | 0.00 | 75 | 1003.8 |
| 20260504031536 | 55 | 222 | 21.0 | 28.0 | 0.00 | 0.00 | 0.00 | 75 | 1003.8 |
| 20260504031030 | 55 | 226 | 24.0 | 28.0 | 0.00 | 0.00 | 0.00 | 75 | 1003.9 |
| 20260504030605 | 55 | 226 | 20.0 | 28.0 | 0.00 | 0.00 | 0.00 | 75 | 1003.9 |
| 20260504030038 | 55 | 218 | 22.0 | 28.0 | 0.00 | 0.00 | 0.00 | 75 | 1003.9 |
| 20260504025551 | 55 | 220 | 22.0 | 27.0 | 0.00 | 0.00 | 0.00 | 75 | 1004.0 |
| 20260504025043 | 55 | 225 | 22.0 | 27.0 | 0.00 | 0.00 | 0.00 | 75 | 1004.0 |
| 20260504024528 | 55 | 235 | 20.0 | 28.0 | 0.00 | 0.00 | 0.00 | 76 | 1004.0 |
| 20260504024040 | 55 | 218 | 21.0 | 28.0 | 0.00 | 0.00 | 0.00 | 75 | 1004.1 |
| 20260504023529 | 55 | 226 | 20.0 | 27.0 | 0.00 | 0.00 | 0.00 | 75 | 1004.1 |
| 20260504022540 | 55 | 228 | 20.0 | 25.0 | 0.00 | 0.00 | 0.00 | 75 | 1004.2 |
| 20260504022033 | 55 | 221 | 20.0 | 28.0 | 0.00 | 0.00 | 0.00 | 75 | 1004.2 |
| 20260504021526 | 56 | 230 | 24.0 | 29.0 | 0.00 | 0.00 | 0.00 | 75 | 1004.1 |
| 20260504021031 | 56 | 234 | 24.0 | 29.0 | 0.00 | 0.00 | 0.00 | 74 | 1004.1 |
| 20260504020523 | 56 | 228 | 23.0 | 32.0 | 0.00 | 0.00 | 0.00 | 74 | 1004.1 |
| 20260504020034 | 56 | 229 | 25.0 | 32.0 | 0.00 | 0.00 | 0.00 | 73 | 1004.0 |
| 20260504015522 | 56 | 223 | 24.0 | 32.0 | 0.00 | 0.00 | 0.00 | 74 | 1004.0 |
| 20260504015034 | 56 | 228 | 24.0 | 29.0 | 0.00 | 0.00 | 0.00 | 74 | 1003.9 |
| 20260504014547 | 56 | 223 | 22.0 | 35.0 | 0.00 | 0.00 | 0.00 | 74 | 1003.9 |
| 20260504014109 | 56 | 220 | 21.0 | 35.0 | 0.00 | 0.00 | 0.00 | 75 | 1003.9 |
| 20260504013558 | 56 | 238 | 29.0 | 35.0 | 0.00 | 0.00 | 0.00 | 73 | 1004.0 |
| 20260504013057 | 56 | 242 | 27.0 | 33.0 | 0.00 | 0.00 | 0.00 | 74 | 1004.0 |
| 20260504012523 | 56 | 237 | 24.0 | 29.0 | 0.00 | 0.00 | 0.00 | 75 | 1004.0 |
| 20260504012031 | 56 | 225 | 21.0 | 29.0 | 0.00 | 0.00 | 0.00 | 76 | 1004.0 |
| 20260504011541 | 56 | 231 | 22.0 | 35.0 | 0.00 | 0.00 | 0.00 | 76 | 1003.9 |
| 20260504011032 | 56 | 240 | 26.0 | 36.0 | 0.00 | 0.00 | 0.00 | 75 | 1003.9 |
| 20260504010026 | 56 | 231 | 22.0 | 28.0 | 0.00 | 0.00 | 0.00 | 79 | 1004.0 |
| 20260504005536 | 56 | 237 | 22.0 | 28.0 | 0.00 | 0.00 | 0.00 | 78 | 1004.0 |
| 20260504005119 | 56 | 241 | 23.0 | 29.0 | 0.00 | 0.00 | 0.00 | 77 | 1003.9 |
| 20260504004555 | 56 | 247 | 25.0 | 29.0 | 0.00 | 0.00 | 0.00 | 76 | 1003.9 |
| 20260504004052 | 57 | 245 | 26.0 | 30.0 | 0.00 | 0.00 | 0.00 | 76 | 1004.1 |
| 20260504003535 | 57 | 234 | 25.0 | 31.0 | 0.00 | 0.00 | 0.00 | 76 | 1004.0 |
| 20260504003026 | 57 | 236 | 26.0 | 31.0 | 0.00 | 0.00 | 0.00 | 76 | 1004.0 |
| 20260504002536 | 57 | 240 | 26.0 | 33.0 | 0.00 | 0.00 | 0.00 | 76 | 1004.0 |
| 20260504002043 | 57 | 243 | 26.0 | 36.0 | 0.00 | 0.00 | 0.00 | 75 | 1004.0 |
| 20260504001558 | 57 | 236 | 28.0 | 36.0 | 0.00 | 0.00 | 0.00 | 75 | 1003.9 |
| 20260504001029 | 57 | 242 | 29.0 | 35.0 | 0.00 | 0.00 | 0.00 | 75 | 1003.8 |
| 20260504000540 | 57 | 233 | 25.0 | 32.0 | 0.00 | 0.00 | 0.00 | 75 | 1003.7 |
| 20260504000027 | 57 | 229 | 25.0 | 31.0 | 0.00 | 0.00 | 0.00 | 76 | 1003.7 |
| 20260503235535 | 57 | 239 | 25.0 | 29.0 | 0.00 | 0.00 | 0.00 | 75 | 1003.7 |
| 20260503235026 | 57 | 240 | 23.0 | 30.0 | 0.00 | 0.00 | 0.00 | 75 | 1003.8 |
| 20260503234532 | 57 | 237 | 24.0 | 30.0 | 0.00 | 0.00 | 0.00 | 74 | 1003.8 |
| 20260503233525 | 57 | 244 | 24.0 | 28.0 | 0.00 | 0.00 | 0.00 | 75 | 1003.8 |
| 20260503233033 | 57 | 239 | 22.0 | 27.0 | 0.00 | 0.00 | 0.00 | 76 | 1003.8 |
| 20260503232606 | 57 | 238 | 21.0 | 27.0 | 0.00 | 0.00 | 0.00 | 75 | 1003.9 |
| 20260503232054 | 57 | 243 | 23.0 | 30.0 | 0.00 | 0.00 | 0.00 | 75 | 1003.9 |
| 20260503231537 | 57 | 239 | 26.0 | 30.0 | 0.00 | 0.00 | 0.00 | 74 | 1003.9 |
| 20260503231026 | 57 | 241 | 26.0 | 30.0 | 0.00 | 0.00 | 0.00 | 73 | 1003.9 |
| 20260503230600 | 57 | 245 | 25.0 | 30.0 | 0.00 | 0.00 | 0.00 | 74 | 1004.0 |
| 20260503230031 | 57 | 245 | 23.0 | 29.0 | 0.00 | 0.00 | 0.00 | 75 | 1004.1 |
| 20260503225532 | 58 | 250 | 23.0 | 29.0 | 0.00 | 0.00 | 0.00 | 75 | 1004.2 |
| 20260503225026 | 58 | 247 | 24.0 | 31.0 | 0.00 | 0.00 | 0.00 | 75 | 1004.3 |
| 20260503224536 | 58 | 251 | 25.0 | 37.0 | 0.00 | 0.00 | 0.00 | 73 | 1004.2 |
| 20260503224025 | 58 | 245 | 30.0 | 39.0 | 0.00 | 0.00 | 0.00 | 73 | 1004.3 |
| 20260503223601 | 58 | 241 | 33.0 | 39.0 | 0.00 | 0.00 | 0.00 | 71 | 1004.2 |
| 20260503223041 | 58 | 242 | 29.0 | 36.0 | 0.00 | 0.00 | 0.00 | 74 | 1004.2 |
| 20260503222525 | 59 | 243 | 32.0 | 36.0 | 0.00 | 0.00 | 0.00 | 73 | 1004.2 |
| 20260503222035 | 59 | 250 | 31.0 | 36.0 | 0.00 | 0.00 | 0.00 | 73 | 1004.2 |
| 20260503221536 | 59 | 242 | 28.0 | 35.0 | 0.00 | 0.00 | 0.00 | 73 | 1004.1 |
| 20260503221039 | 59 | 246 | 28.0 | 36.0 | 0.00 | 0.00 | 0.00 | 72 | 1004.1 |
| 20260503220529 | 59 | 242 | 30.0 | 40.0 | 0.00 | 0.00 | 0.00 | 72 | 1004.1 |
| 20260503220041 | 59 | 244 | 32.0 | 40.0 | 0.00 | 0.00 | 0.00 | 71 | 1004.1 |
| 20260503215547 | 59 | 246 | 26.0 | 35.0 | 0.00 | 0.00 | 0.00 | 72 | 1004.0 |
| 20260503215037 | 59 | 239 | 28.0 | 35.0 | 0.00 | 0.00 | 0.00 | 71 | 1003.9 |
| 20260503214525 | 59 | 244 | 27.0 | 32.0 | 0.00 | 0.00 | 0.00 | 71 | 1004.0 |
| 20260503214101 | 59 | 244 | 26.0 | 32.0 | 0.00 | 0.00 | 0.00 | 72 | 1004.0 |
| 20260503213525 | 59 | 236 | 25.0 | 28.0 | 0.00 | 0.00 | 0.00 | 73 | 1004.0 |
| 20260503213046 | 59 | 240 | 23.0 | 28.0 | 0.00 | 0.00 | 0.00 | 74 | 1004.0 |
| 20260503212535 | 59 | 243 | 25.0 | 28.0 | 0.00 | 0.00 | 0.00 | 73 | 1004.0 |
| 20260503212045 | 59 | 239 | 24.0 | 31.0 | 0.00 | 0.00 | 0.00 | 73 | 1004.0 |
| 20260503211533 | 60 | 244 | 24.0 | 31.0 | 0.00 | 0.00 | 0.00 | 72 | 1004.0 |
| 20260503211059 | 59 | 241 | 27.0 | 31.0 | 0.00 | 0.00 | 0.00 | 71 | 1004.0 |
| 20260503210535 | 59 | 243 | 26.0 | 30.0 | 0.00 | 0.00 | 0.00 | 72 | 1004.1 |
| 20260503210026 | 59 | 245 | 25.0 | 30.0 | 0.00 | 0.00 | 0.00 | 72 | 1004.1 |
| 20260503205535 | 59 | 241 | 20.0 | 24.0 | 0.00 | 0.00 | 0.00 | 74 | 1004.1 |
| 20260503205024 | 60 | 243 | 18.0 | 21.0 | 0.00 | 0.00 | 0.00 | 74 | 1004.2 |
| 20260503204527 | 60 | 247 | 18.0 | 20.0 | 0.00 | 0.00 | 0.00 | 76 | 1004.2 |
| 20260503204040 | 60 | 247 | 16.0 | 20.0 | 0.00 | 0.00 | 0.00 | 76 | 1004.3 |
| 20260503203527 | 60 | 251 | 17.0 | 23.0 | 0.00 | 0.00 | 0.00 | 76 | 1004.3 |
| 20260503203038 | 59 | 245 | 19.0 | 27.0 | 0.00 | 0.00 | 0.00 | 75 | 1004.3 |
| 20260503202543 | 59 | 247 | 21.0 | 31.0 | 0.00 | 0.00 | 0.00 | 75 | 1004.4 |
| 20260503202040 | 59 | 234 | 21.0 | 31.0 | 0.00 | 0.00 | 0.00 | 74 | 1004.5 |
| 20260503201559 | 60 | 234 | 22.0 | 28.0 | 0.00 | 0.00 | 0.00 | 72 | 1004.4 |
| 20260503201051 | 60 | 237 | 20.0 | 28.0 | 0.00 | 0.00 | 0.00 | 73 | 1004.6 |
| 20260503200538 | 60 | 241 | 21.0 | 28.0 | 0.00 | 0.00 | 0.00 | 72 | 1004.7 |
| 20260503200109 | 60 | 248 | 23.0 | 29.0 | 0.00 | 0.00 | 0.00 | 71 | 1004.7 |
| 20260503195523 | 60 | 232 | 25.0 | 31.0 | 0.00 | 0.00 | 0.00 | 70 | 1004.8 |
| 20260503195035 | 59 | 237 | 21.0 | 26.0 | 0.00 | 0.00 | 0.00 | 75 | 1004.9 |
| 20260503194539 | 59 | 246 | 18.0 | 21.0 | 0.00 | 0.00 | 0.00 | 73 | 1004.9 |
| 20260503194027 | 59 | 235 | 17.0 | 20.0 | 0.00 | 0.00 | 0.00 | 74 | 1005.0 |
| 20260503193541 | 59 | 227 | 14.0 | 20.0 | 0.00 | 0.00 | 0.00 | 74 | 1005.1 |
| 20260503193029 | 58 | 231 | 14.0 | 20.0 | 0.00 | 0.00 | 0.00 | 75 | 1005.2 |
| 20260503192537 | 57 | 240 | 16.0 | 19.0 | 0.00 | 0.00 | 0.00 | 75 | 1005.3 |
| 20260503192028 | 58 | 229 | 15.0 | 19.0 | 0.00 | 0.00 | 0.00 | 76 | 1005.4 |
| 20260503191535 | 58 | 236 | 17.0 | 21.0 | 0.00 | 0.00 | 0.00 | 74 | 1005.5 |
| 20260503191048 | 58 | 236 | 16.0 | 20.0 | 0.00 | 0.00 | 0.00 | 74 | 1005.6 |
| 20260503190526 | 58 | 230 | 17.0 | 20.0 | 0.00 | 0.00 | 0.00 | 73 | 1005.7 |
| 20260503190058 | 58 | 226 | 17.0 | 21.0 | 0.00 | 0.00 | 0.00 | 74 | 1005.8 |
| 20260503185523 | 57 | 233 | 18.0 | 22.0 | 0.00 | 0.00 | 0.00 | 73 | 1005.9 |
| 20260503185036 | 57 | 228 | 18.0 | 23.0 | 0.00 | 0.00 | 0.00 | 72 | 1005.9 |
| 20260503184546 | 57 | 235 | 20.0 | 24.0 | 0.00 | 0.00 | 0.00 | 72 | 1005.9 |
| 20260503184030 | 56 | 221 | 20.0 | 25.0 | 0.00 | 0.00 | 0.00 | 71 | 1005.8 |
| 20260503183041 | 56 | 232 | 21.0 | 25.0 | 0.00 | 0.00 | 0.00 | 71 | 1005.8 |
| 20260503182532 | 55 | 229 | 19.0 | 23.0 | 0.00 | 0.00 | 0.00 | 76 | 1005.9 |
| 20260503182040 | 54 | 224 | 14.0 | 22.0 | 0.00 | 0.00 | 0.00 | 77 | 1006.0 |
| 20260503181530 | 54 | 209 | 19.0 | 22.0 | 0.00 | 0.00 | 0.00 | 78 | 1005.9 |
| 20260503181036 | 54 | 209 | 18.0 | 21.0 | 0.00 | 0.00 | 0.00 | 79 | 1005.9 |
| 20260503180526 | 54 | 209 | 18.0 | 25.0 | 0.00 | 0.00 | 0.00 | 78 | 1006.0 |
| 20260503180044 | 54 | 208 | 18.0 | 25.0 | 0.00 | 0.00 | 0.00 | 75 | 1006.1 |
| 20260503175530 | 54 | 219 | 20.0 | 23.0 | 0.00 | 0.00 | 0.00 | 74 | 1006.1 |
| 20260503175047 | 54 | 226 | 19.0 | 23.0 | 0.00 | 0.00 | 0.00 | 76 | 1006.2 |
| 20260503174557 | 53 | 223 | 19.0 | 22.0 | 0.00 | 0.00 | 0.00 | 77 | 1006.4 |
| 20260503174055 | 53 | 221 | 17.0 | 21.0 | 0.00 | 0.00 | 0.00 | 79 | 1006.4 |
| 20260503173522 | 52 | 209 | 18.0 | 23.0 | 0.00 | 0.00 | 0.00 | 79 | 1006.4 |
| 20260503173044 | 52 | 214 | 18.0 | 23.0 | 0.00 | 0.00 | 0.00 | 78 | 1006.5 |
| 20260503172551 | 52 | 225 | 19.0 | 26.0 | 0.00 | 0.00 | 0.00 | 78 | 1006.7 |
| 20260503172042 | 52 | 215 | 20.0 | 26.0 | 0.00 | 0.00 | 0.00 | 78 | 1006.7 |
| 20260503171536 | 52 | 228 | 20.0 | 30.0 | 0.00 | 0.00 | 0.00 | 78 | 1006.9 |
| 20260503171027 | 52 | 232 | 24.0 | 30.0 | 0.00 | 0.00 | 0.00 | 78 | 1007.0 |
| 20260503170558 | 52 | 226 | 24.0 | 28.0 | 0.00 | 0.00 | 0.00 | 78 | 1007.1 |
| 20260503150558 | 53 | 248 | 23.0 | 26.0 | 0.00 | 0.00 | 0.00 | 70 | 1008.0 |
| 20260503131056 | 49 | 229 | 22.0 | 25.0 | 0.00 | 0.00 | 0.00 | 75 | 1008.6 |
| 20260503130523 | 49 | 251 | 21.0 | 24.0 | 0.00 | 0.00 | 0.00 | 75 | 1008.7 |
| 20260503110524 | 45 | 216 | 17.0 | 19.0 | 0.00 | 0.00 | 0.00 | 73 | 1009.1 |
| 20260503081544 | 47 | 239 | 15.0 | 18.0 | 0.00 | 0.00 | 0.00 | 70 | 1010.9 |
| 20260503081035 | 47 | 247 | 14.0 | 16.0 | 0.00 | 0.00 | 0.00 | 71 | 1010.9 |
| 20260503080548 | 47 | 246 | 13.0 | 16.0 | 0.00 | 0.00 | 0.00 | 68 | 1011.0 |
| 20260503072530 | 47 | 246 | 16.0 | 18.0 | 0.00 | 0.00 | 0.00 | 65 | 1011.1 |